Total_Precipitation_Accumulation
0.00 0.00 0.00 0.00 0.01 0.02 0.04 0.05 0.10 0.11 0.14 0.21 0.32 0.52 0.72 0.82 0.94 1.06 1.06 1.14 1.41 1.87 2.21 2.45 2.56 2.71 2.80 2.97 3.17 3.42 3.72 3.87 3.65 3.62 3.58 3.45 3.13 2.96 2.67 2.38 2.09 2.00 1.97 2.12
0.00 0.01 0.01 0.00 0.01 0.03 0.04 0.06 0.10 0.11 0.14 0.22 0.28 0.47 0.67 0.70 0.89 0.99 1.06 1.17 1.29 1.53 2.00 2.23 2.21 2.39 2.51 2.77 3.17 3.46 3.38 3.30 3.15 3.26 3.47 3.61 3.54 3.15 2.61 2.33 2.17 1.93 1.85 1.96
0.01 0.02 0.01 0.01 0.01 0.02 0.07 0.09 0.10 0.11 0.15 0.25 0.34 0.74 0.85 0.75 0.86 0.95 1.01 1.15 1.25 1.41 1.57 1.77 1.78 1.82 1.96 2.25 2.59 2.69 2.50 2.40 2.32 2.36 2.57 2.72 2.95 2.81 2.47 2.18 2.00 1.87 1.82 1.80
0.01 0.01 0.01 0.02 0.02 0.02 0.06 0.05 0.05 0.08 0.18 0.35 0.43 0.84 1.05 1.05 1.11 0.98 1.00 1.05 1.27 1.39 1.38 1.47 1.54 1.55 1.55 1.52 1.55 1.63 1.71 1.73 1.77 1.84 2.03 2.22 2.43 2.41 2.32 2.23 1.95 1.73 1.57 1.53
0.02 0.02 0.02 0.03 0.04 0.03 0.05 0.04 0.05 0.09 0.18 0.37 0.42 0.61 0.99 1.23 1.25 1.02 0.98 0.99 1.15 1.13 1.10 1.17 1.26 1.28 1.27 1.23 1.29 1.33 1.42 1.57 1.65 1.70 1.80 1.93 2.24 2.23 2.05 1.88 1.71 1.60 1.50 1.42
0.03 0.04 0.04 0.04 0.04 0.03 0.05 0.06 0.12 0.17 0.27 0.63 0.54 0.60 0.95 1.15 0.98 0.93 0.86 0.84 0.91 0.87 0.93 1.04 1.06 1.06 1.02 1.02 1.14 1.21 1.23 1.30 1.37 1.42 1.47 1.47 1.60 1.65 1.55 1.46 1.40 1.32 1.23 1.21
0.12 0.10 0.08 0.05 0.05 0.06 0.08 0.14 0.47 0.83 1.00 0.94 0.58 0.68 1.09 0.96 0.79 0.76 0.76 0.78 0.83 0.81 0.77 0.84 0.94 0.89 0.89 0.90 0.96 1.03 1.09 1.10 1.06 1.03 0.97 0.94 1.01 1.13 1.16 1.15 1.14 1.12 1.00 0.94
0.21 0.24 0.16 0.09 0.08 0.09 0.13 0.22 0.60 0.82 0.79 0.79 0.67 1.04 1.25 0.83 0.72 0.66 0.60 0.58 0.57 0.55 0.53 0.56 0.61 0.64 0.66 0.71 0.77 0.81 0.84 0.88 0.88 0.87 0.87 0.80 0.81 0.90 0.97 1.05 1.00 0.97 0.86 0.77
0.14 0.16 0.11 0.08 0.07 0.10 0.21 0.28 0.30 0.49 0.56 0.82 0.97 1.18 1.05 0.75 0.70 0.63 0.62 0.57 0.53 0.48 0.44 0.44 0.46 0.48 0.45 0.48 0.52 0.57 0.63 0.73 0.80 0.81 0.79 0.70 0.72 0.85 0.91 0.96 0.99 1.02 1.00 0.91
0.07 0.09 0.10 0.08 0.10 0.14 0.17 0.21 0.28 0.41 0.57 0.77 0.91 1.15 1.28 1.08 0.92 0.81 0.86 0.73 0.60 0.46 0.38 0.36 0.32 0.31 0.29 0.33 0.41 0.52 0.66 0.74 0.72 0.67 0.62 0.55 0.61 0.80 0.85 0.80 0.82 0.92 0.97 0.96
0.06 0.06 0.10 0.13 0.13 0.16 0.19 0.21 0.28 0.34 0.38 0.54 0.83 0.99 0.77 0.83 0.84 0.85 0.78 0.67 0.54 0.42 0.34 0.31 0.29 0.27 0.26 0.29 0.34 0.44 0.52 0.64 0.67 0.59 0.52 0.48 0.48 0.54 0.63 0.67 0.68 0.75 0.82 0.86
0.07 0.08 0.13 0.18 0.16 0.15 0.17 0.20 0.30 0.45 0.46 0.51 0.68 0.79 0.49 0.54 0.55 0.53 0.48 0.40 0.33 0.29 0.25 0.23 0.24 0.27 0.32 0.40 0.39 0.39 0.41 0.45 0.55 0.53 0.48 0.46 0.45 0.43 0.41 0.45 0.49 0.53 0.60 0.64
0.09 0.12 0.23 0.42 0.43 0.27 0.23 0.19 0.24 0.31 0.37 0.40 0.56 0.67 0.47 0.43 0.46 0.49 0.48 0.45 0.36 0.29 0.25 0.24 0.24 0.25 0.28 0.38 0.47 0.44 0.45 0.46 0.52 0.51 0.49 0.48 0.46 0.43 0.37 0.34 0.36 0.39 0.39 0.39
0.08 0.09 0.18 0.37 0.35 0.27 0.26 0.25 0.27 0.31 0.39 0.38 0.38 0.51 0.58 0.57 0.54 0.50 0.48 0.44 0.38 0.27 0.21 0.21 0.23 0.25 0.27 0.31 0.37 0.41 0.42 0.45 0.50 0.57 0.64 0.60 0.53 0.49 0.41 0.34 0.32 0.30 0.30 0.30
0.07 0.07 0.10 0.13 0.15 0.23 0.25 0.23 0.24 0.25 0.28 0.40 0.33 0.36 0.48 0.49 0.51 0.50 0.44 0.34 0.28 0.24 0.22 0.21 0.23 0.26 0.27 0.28 0.29 0.31 0.37 0.39 0.41 0.49 0.60 0.62 0.55 0.50 0.44 0.37 0.29 0.28 0.28 0.25
0.14 0.12 0.13 0.13 0.17 0.23 0.24 0.21 0.19 0.17 0.17 0.21 0.24 0.30 0.32 0.30 0.35 0.38 0.35 0.34 0.26 0.25 0.23 0.19 0.19 0.18 0.21 0.22 0.20 0.22 0.25 0.27 0.30 0.36 0.43 0.48 0.49 0.45 0.41 0.34 0.28 0.26 0.25 0.26
0.24 0.24 0.20 0.19 0.19 0.24 0.31 0.24 0.18 0.14 0.11 0.17 0.30 0.37 0.31 0.29 0.31 0.33 0.28 0.25 0.22 0.17 0.14 0.13 0.13 0.13 0.12 0.11 0.12 0.17 0.20 0.22 0.29 0.34 0.37 0.43 0.49 0.47 0.38 0.28 0.27 0.28 0.29 0.32
0.20 0.26 0.28 0.27 0.32 0.42 0.28 0.15 0.14 0.13 0.10 0.09 0.19 0.24 0.26 0.24 0.23 0.20 0.18 0.16 0.14 0.10 0.08 0.07 0.06 0.07 0.07 0.07 0.10 0.15 0.19 0.26 0.32 0.37 0.42 0.46 0.49 0.50 0.46 0.39 0.38 0.41 0.44 0.45
0.20 0.28 0.30 0.33 0.41 0.33 0.19 0.17 0.17 0.19 0.18 0.12 0.15 0.18 0.19 0.19 0.19 0.19 0.15 0.14 0.12 0.07 0.07 0.07 0.06 0.06 0.08 0.11 0.15 0.22 0.30 0.38 0.41 0.43 0.45 0.48 0.54 0.62 0.63 0.57 0.51 0.51 0.54 0.51
0.24 0.31 0.39 0.39 0.49 0.40 0.25 0.21 0.20 0.22 0.37 0.27 0.23 0.22 0.19 0.17 0.26 0.27 0.13 0.08 0.08 0.09 0.09 0.08 0.09 0.10 0.13 0.16 0.21 0.30 0.39 0.47 0.51 0.50 0.47 0.50 0.56 0.65 0.72 0.72 0.65 0.60 0.62 0.56
0.46 0.46 0.43 0.46 0.54 0.36 0.24 0.23 0.25 0.42 0.52 0.36 0.34 0.31 0.26 0.27 0.27 0.20 0.12 0.08 0.07 0.08 0.09 0.09 0.12 0.15 0.18 0.20 0.26 0.35 0.45 0.51 0.51 0.50 0.53 0.60 0.67 0.73 0.77 0.83 0.83 0.79 0.72 0.67
0.55 0.62 0.60 0.61 0.69 0.59 0.37 0.31 0.38 0.45 0.39 0.38 0.37 0.38 0.34 0.31 0.28 0.22 0.17 0.12 0.09 0.07 0.08 0.10 0.16 0.20 0.21 0.23 0.31 0.41 0.47 0.51 0.56 0.59 0.65 0.70 0.77 0.75 0.78 0.99 1.03 1.05 0.99 0.85
0.57 0.67 0.77 0.75 0.71 0.53 0.50 0.51 0.52 0.49 0.46 0.44 0.33 0.29 0.28 0.27 0.26 0.29 0.27 0.19 0.15 0.13 0.13 0.15 0.20 0.26 0.33 0.39 0.47 0.56 0.54 0.60 0.69 0.75 0.81 0.80 0.79 0.85 0.94 1.02 1.05 1.05 1.03 0.96
0.47 0.48 0.66 0.77 0.71 0.64 0.53 0.39 0.43 0.53 0.48 0.36 0.27 0.25 0.24 0.22 0.20 0.19 0.18 0.16 0.15 0.15 0.18 0.19 0.24 0.35 0.46 0.55 0.58 0.60 0.62 0.70 0.82 0.90 0.95 0.97 0.95 0.92 0.94 1.07 1.08 1.05 0.99 0.97
0.27 0.29 0.45 0.63 0.65 0.67 0.59 0.38 0.30 0.35 0.31 0.23 0.22 0.23 0.22 0.18 0.14 0.11 0.09 0.10 0.12 0.13 0.17 0.24 0.32 0.42 0.46 0.55 0.67 0.72 0.82 0.96 1.02 0.99 0.99 1.02 1.05 1.10 1.12 1.10 1.09 1.05 1.03 0.92
0.25 0.29 0.41 0.55 0.51 0.55 0.51 0.39 0.31 0.26 0.22 0.20 0.22 0.25 0.21 0.17 0.17 0.15 0.12 0.12 0.13 0.16 0.22 0.29 0.39 0.50 0.57 0.69 0.82 0.89 1.00 1.15 1.28 1.22 1.11 1.11 1.12 1.15 1.19 1.17 1.08 0.95 0.86 0.74